Regional Weather Roundup
Issued by NWS

Home | Current Version | Previous Version | Text Only | Print | Product List | Glossary Off
Versions: 1 2 3 4 5 6 7 8 9 10 11 12 13 14 15 16 17 18 19 20 21 22 23 24 25 26 27 28 29 30 31 32 33 34 35 36 37 38 39 40 41 42 43 44 45 46 47 48 49 50

000
ASUS43 KLSX 020807
RWRMO

WEATHER SUMMARY FOR MISSOURI
NATIONAL WEATHER SERVICE SPRINGFIELD MO
300 AM CDT THU APR 02 2015

NOTE: "FAIR" INDICATES FEW OR NO CLOUDS BELOW 12,000 FEET WITH NO
       SIGNIFICANT WEATHER AND/OR OBSTRUCTIONS TO VISIBILITY.
       CURRENT SKY AND/OR WEATHER CONDITIONS ARE NOT AVAILABLE FOR
       CHILLICOTHE AND FARMINGTON.

MOZ001>031-035>038-043-044-053-054-020900-
...NORTHERN AND WESTERN MISSOURI...

CITY           SKY/WX    TMP DP  RH WIND       PRES   REMARKS
KANSAS CTY INT CLOUDY    64  59  83 N12G26    29.68R
KANSAS C DTWN  MOCLDY    67  59  75 NW21      29.65R
LEE`S SUMMIT   PTCLDY    63  57  81 S15G22    29.60F
ST JOSEPH      LGT RAIN  58  55  90 N13       29.69S
CHILLICOTHE      N/A     61  57  87 S3        29.66R
KIRKSVILLE     MOCLDY    60  57  89 S15       29.65F

$$
MOZ066>068-077>081-088>096-101>105-020900-
...SOUTHWEST MISSOURI...

CITY           SKY/WX    TMP DP  RH WIND       PRES   REMARKS
SPRINGFIELD    CLEAR     60  56  86 S17       29.75F
JOPLIN         MOCLDY    66  60  81 S24G31    29.69F

$$
MOZ032>034-039>042-045>050-055>058-069>072-020900-
...CENTRAL MISSOURI...

CITY           SKY/WX    TMP DP  RH WIND       PRES   REMARKS
COLUMBIA       CLOUDY    61  57  87 S16       29.71F
JEFFERSON CITY MOCLDY    63  55  75 S12       29.73F
ROLLA          CLEAR     60  53  77 S14       29.75F
WHITEMAN AFB   MOCLDY    61  58  88 S20       29.63F
WARRENSBURG    PTCLDY    61  55  82 S16       29.62F
OSAGE BEACH    CLEAR     61  54  77 S10       29.74F

$$
MOZ051-052-059>065-020900-
...EAST CENTRAL MISSOURI...

CITY           SKY/WX    TMP DP  RH WIND       PRES   REMARKS
ST LOUIS INTL  PTCLDY    67  53  61 S18G25    29.78F
SPIRIT OF STL  CLEAR     66  54  65 S12G20    29.77F
ST CHARLES     CLEAR     64  54  69 S17       29.77F

$$
MOZ072>076-082>087-097>100-106>115-020900-
...SOUTH CENTRAL AND SOUTHEAST MISSOURI...

CITY           SKY/WX    TMP DP  RH WIND       PRES   REMARKS
CAPE GIRARDEAU CLOUDY    62  59  90 SW10      29.87F
FARMINGTON     MOCLDY    61  55  82 S13       29.87F
POPLAR BLUFF   CLOUDY    62  57  83 SW7       29.85F
WEST PLAINS    CLEAR     61  56  83 S9G20     29.84F

$$


USA.gov is the U.S. government's official web portal to all federal, state and local government web resources and services.